#�ϑ�����,���ϕ���,���ϕ���,�ő啗��,�ő啗����������,�ő�u�ԕ���,�ő�u�ԕ�����������
#(�N����),(m/s)   ,(16����),(m/s)   ,(16����)        ,(m/s)       ,(16����)            
2013/3/30 0:01,4.8,16,4.8,16,10.5,16
2013/3/30 0:02,5.3,16,5.3,16,9.8,16
2013/3/30 0:03,5.3,16,5.3,16,8.2,16
2013/3/30 0:04,5.4,16,5.4,16,9.7,16
2013/3/30 0:05,5.5,16,5.6,16,7,16
2013/3/30 0:06,5.6,16,5.6,16,9.9,16
2013/3/30 0:07,5.7,16,5.7,16,7.5,16
2013/3/30 0:08,5.5,16,5.7,16,9.9,1
2013/3/30 0:09,5.3,16,5.4,16,11.7,16
2013/3/30 0:10,5.3,16,5.4,16,9.5,16
2013/3/30 0:11,5.5,16,5.5,16,9.9,16
2013/3/30 0:12,5.5,16,5.7,16,10.2,16
2013/3/30 0:13,5.6,16,5.6,16,7.1,16
2013/3/30 0:14,5.3,16,5.6,16,8.9,16
2013/3/30 0:15,5.5,16,5.5,16,9.3,15
2013/3/30 0:16,5.3,16,5.5,16,9.1,15
2013/3/30 0:17,5.3,16,5.3,16,9.3,16
2013/3/30 0:18,5.2,16,5.3,16,8.5,2
2013/3/30 0:19,5.5,16,5.5,16,11.7,1
2013/3/30 0:20,5.4,16,5.4,16,10.7,16
2013/3/30 0:21,5.2,16,5.4,16,9.8,2
2013/3/30 0:22,5,16,5.2,16,8.9,16
2013/3/30 0:23,5,16,5.1,16,8.3,16
2013/3/30 0:24,5.1,16,5.1,16,6.9,16
2013/3/30 0:25,4.9,16,5.1,16,8.9,1
2013/3/30 0:26,4.9,16,4.9,16,6.7,16
2013/3/30 0:27,4.9,16,5,16,9.9,16
2013/3/30 0:28,5,16,5,16,7.7,16
2013/3/30 0:29,4.7,16,5,16,8.4,15
2013/3/30 0:30,4.6,16,4.7,16,8.1,16
2013/3/30 0:31,4.2,16,4.5,16,3.7,15
2013/3/30 0:32,4.2,16,4.2,16,5.8,1
2013/3/30 0:33,4.1,16,4.2,16,7.8,15
2013/3/30 0:34,3.9,16,4.1,16,5.5,16
2013/3/30 0:35,3.9,16,4,16,8.5,1
2013/3/30 0:36,4,16,4,16,8.7,1
2013/3/30 0:37,4.2,16,4.2,16,11.1,15
2013/3/30 0:38,4.2,16,4.3,16,8.4,16
2013/3/30 0:39,4.3,16,4.3,16,8.7,16
2013/3/30 0:40,4.4,16,4.5,16,8.2,16
2013/3/30 0:41,4.8,16,4.8,16,8.4,16
2013/3/30 0:42,4.8,16,4.8,16,6.2,15
2013/3/30 0:43,4.7,16,4.8,16,4.4,2
2013/3/30 0:44,4.6,16,4.7,16,4.9,15
2013/3/30 0:45,4.4,16,4.6,16,5.4,1
2013/3/30 0:46,4.3,16,4.5,16,7.7,16
2013/3/30 0:47,3.9,16,4.3,16,5.8,16
2013/3/30 0:48,3.8,16,3.9,16,6.9,15
2013/3/30 0:49,3.7,16,3.8,16,8.2,16
2013/3/30 0:50,3.8,16,3.8,16,10.5,16
2013/3/30 0:51,3.8,16,3.9,16,9.9,1
2013/3/30 0:52,3.8,16,3.8,16,9.2,16
2013/3/30 0:53,3.8,16,3.8,16,5,1
2013/3/30 0:54,3.9,16,3.9,16,5.7,15
2013/3/30 0:55,4.1,16,4.1,16,12.5,16
2013/3/30 0:56,4.2,16,4.2,16,9.1,1
2013/3/30 0:57,4.2,16,4.2,16,5.2,16
2013/3/30 0:58,4.4,16,4.4,16,10,14
2013/3/30 0:59,4.5,16,4.5,16,13.1,16
2013/3/30 1:00,4.4,16,4.5,16,13,16
2013/3/30 1:01,4.6,16,4.6,16,10.3,16
2013/3/30 1:02,4.4,16,4.6,16,8.5,16
2013/3/30 1:03,4.3,16,4.4,16,3.9,15
2013/3/30 1:04,4.2,16,4.3,16,5.5,14
2013/3/30 1:05,4,16,4.2,16,6.9,16
2013/3/30 1:06,4.2,16,4.2,16,9,2
2013/3/30 1:07,4.4,16,4.5,16,8.5,16
2013/3/30 1:08,4.3,16,4.5,16,6.5,15
2013/3/30 1:09,4.1,16,4.3,16,6.8,16
2013/3/30 1:10,4,16,4.2,16,8.1,16
2013/3/30 1:11,3.7,16,4,16,9,1
2013/3/30 1:12,3.7,16,3.7,16,3.6,16
2013/3/30 1:13,3.7,16,3.7,16,3.7,2
2013/3/30 1:14,3.9,16,3.9,16,7.6,1
2013/3/30 1:15,4.3,16,4.3,16,11.7,16
2013/3/30 1:16,4.2,16,4.3,16,12.2,16
2013/3/30 1:17,4.2,16,4.3,16,7.6,16
2013/3/30 1:18,4.4,16,4.4,16,10.2,16
2013/3/30 1:19,4.5,16,4.5,16,7.6,16
2013/3/30 1:20,4.3,16,4.5,16,6.8,2
2013/3/30 1:21,4.2,16,4.4,16,5.8,16
2013/3/30 1:22,4.3,16,4.3,16,6,16
2013/3/30 1:23,4.5,16,4.5,16,6.9,14
2013/3/30 1:24,4.3,16,4.5,16,5.8,1
2013/3/30 1:25,4,16,4.3,16,7.6,16
2013/3/30 1:26,3.7,16,4,16,8.1,1
2013/3/30 1:27,3.9,16,3.9,16,8.5,15
2013/3/30 1:28,3.5,16,3.8,16,5.1,1
2013/3/30 1:29,3.3,16,3.5,16,4.9,14
2013/3/30 1:30,3.1,16,3.2,16,3.2,16
2013/3/30 1:31,3.2,16,3.2,16,10.3,1
2013/3/30 1:32,3.3,16,3.3,16,5.7,15
2013/3/30 1:33,3.2,16,3.3,16,6.3,15
2013/3/30 1:34,3.3,16,3.3,16,6.8,16
2013/3/30 1:35,3.5,16,3.5,16,6.5,15
2013/3/30 1:36,3.7,16,3.7,16,8.5,16
2013/3/30 1:37,3.7,16,3.7,16,9.2,15
2013/3/30 1:38,3.9,16,3.9,16,7.1,1
2013/3/30 1:39,3.9,16,3.9,16,5.2,16
2013/3/30 1:40,4.2,16,4.2,16,6.9,16
2013/3/30 1:41,4.1,16,4.2,16,5.2,16
2013/3/30 1:42,4,16,4.1,16,6,16
2013/3/30 1:43,3.8,16,4,16,3.1,15
2013/3/30 1:44,3.5,16,3.8,16,3,1
2013/3/30 1:45,3.5,16,3.5,16,7.1,1
2013/3/30 1:46,3.4,16,3.5,16,7.2,1
2013/3/30 1:47,3.3,1,3.4,16,6.1,1
2013/3/30 1:48,3.1,1,3.2,16,7,3
2013/3/30 1:49,3.1,1,3.1,16,5.8,2
2013/3/30 1:50,3,1,3.1,16,4.9,2
2013/3/30 1:51,3,1,3,16,4.4,2
2013/3/30 1:52,2.9,1,3,16,3.9,3
2013/3/30 1:53,3,1,3,16,2.7,3
2013/3/30 1:54,3.1,2,3.1,16,5.1,2
2013/3/30 1:55,3,2,3.1,16,5.2,3
2013/3/30 1:56,2.8,2,2.9,16,3,4
2013/3/30 1:57,2.5,2,2.7,16,3.1,5
2013/3/30 1:58,2.3,2,2.5,1,2.4,3
2013/3/30 1:59,2.2,3,2.3,1,2.2,3
2013/3/30 2:00,2.1,3,2.1,2,2.7,6
2013/3/30 2:01,2,3,2.1,2,3,6
2013/3/30 2:02,1.9,4,2,2,2.5,4
2013/3/30 2:03,2,4,2,2,2.5,5
2013/3/30 2:04,1.8,4,2,2,2.2,2
2013/3/30 2:05,1.7,4,1.8,2,3.3,1
2013/3/30 2:06,1.5,4,1.7,2,1,3
2013/3/30 2:07,1.5,4,1.5,2,2.6,4
2013/3/30 2:08,1.5,4,1.5,2,2.6,5
2013/3/30 2:09,1.6,4,1.6,3,3.5,4
2013/3/30 2:10,1.7,4,1.7,3,4.5,5
2013/3/30 2:11,1.7,4,1.7,3,3.3,7
2013/3/30 2:12,1.6,4,1.7,4,2,5
2013/3/30 2:13,1.7,4,1.7,4,4.8,4
2013/3/30 2:14,1.7,4,1.7,4,3.7,3
2013/3/30 2:15,1.9,4,1.9,4,4.4,1
2013/3/30 2:16,2,4,2,4,4.3,1
2013/3/30 2:17,2.1,4,2.1,4,4.4,1
2013/3/30 2:18,2.2,3,2.2,4,3.7,1
2013/3/30 2:19,2.3,3,2.3,3,4.4,2
2013/3/30 2:20,2.3,3,2.3,3,4.7,2
2013/3/30 2:21,2.4,2,2.4,2,5.7,3
2013/3/30 2:22,2.9,2,2.9,2,7.9,3
2013/3/30 2:23,3.2,2,3.2,2,7.7,4
2013/3/30 2:24,3.5,2,3.5,2,6.3,3
2013/3/30 2:25,3.4,2,3.5,2,5.5,3
2013/3/30 2:26,3.5,2,3.5,2,4.2,3
2013/3/30 2:27,3.4,2,3.5,2,3.8,3
2013/3/30 2:28,3.6,2,3.6,2,7.5,3
2013/3/30 2:29,3.8,2,3.8,2,6.7,2
2013/3/30 2:30,3.9,2,3.9,2,7.1,3
2013/3/30 2:31,3.9,2,3.9,2,7.6,15
2013/3/30 2:32,3.6,2,3.9,2,5.7,16
2013/3/30 2:33,3.5,2,3.6,2,6.3,16
2013/3/30 2:34,3.3,1,3.5,2,5.6,1
2013/3/30 2:35,3.2,1,3.3,2,3.1,16
2013/3/30 2:36,3.2,1,3.2,2,3.6,2
2013/3/30 2:37,3.1,1,3.2,2,2.9,2
2013/3/30 2:38,2.8,1,3.1,2,3.2,2
2013/3/30 2:39,2.5,1,2.8,2,3.2,4
2013/3/30 2:40,2.4,1,2.5,2,5.4,4
2013/3/30 2:41,2.5,1,2.5,2,6.8,3
2013/3/30 2:42,2.9,2,2.9,2,8.5,3
2013/3/30 2:43,2.9,2,2.9,2,6.9,2
2013/3/30 2:44,2.8,2,2.9,1,3.9,1
2013/3/30 2:45,2.9,2,2.9,1,3.8,2
2013/3/30 2:46,3.1,2,3.1,1,6.8,1
2013/3/30 2:47,3.4,2,3.4,2,7.2,2
2013/3/30 2:48,3.6,2,3.6,2,4.5,1
2013/3/30 2:49,3.6,2,3.6,2,4.2,4
2013/3/30 2:50,3.6,2,3.7,2,4.8,15
2013/3/30 2:51,3.5,1,3.6,2,3.9,1
2013/3/30 2:52,3,1,3.5,2,3.7,1
2013/3/30 2:53,2.9,1,3,2,6.3,2
2013/3/30 2:54,3,2,3,2,6.9,3
2013/3/30 2:55,3.1,2,3.1,2,6.8,3
2013/3/30 2:56,3,2,3.1,2,6.8,1
2013/3/30 2:57,2.9,2,3.1,2,7.6,1
2013/3/30 2:58,2.9,2,2.9,2,4.8,2
2013/3/30 2:59,2.9,2,2.9,2,4.2,1
2013/3/30 3:00,2.9,2,2.9,2,4.5,16
2013/3/30 3:01,3,2,3,1,6.3,16
2013/3/30 3:02,3.1,1,3.1,2,4.5,16
2013/3/30 3:03,2.9,1,3.1,2,5.4,16
2013/3/30 3:04,2.9,1,2.9,2,7.1,1
2013/3/30 3:05,2.9,1,2.9,2,7,1
2013/3/30 3:06,3,1,3,2,7.8,3
2013/3/30 3:07,3.2,1,3.2,1,7.9,1
2013/3/30 3:08,3.3,1,3.3,1,5.4,3
2013/3/30 3:09,3.5,1,3.5,1,8.1,1
2013/3/30 3:10,3.6,1,3.6,1,7.9,2
2013/3/30 3:11,3.5,1,3.6,1,4.5,1
2013/3/30 3:12,3.6,1,3.6,1,5.1,15
2013/3/30 3:13,3.7,2,3.7,2,6.9,1
2013/3/30 3:14,3.8,2,3.9,2,6.4,2
2013/3/30 3:15,3.8,2,3.8,2,6.8,1
2013/3/30 3:16,3.6,2,3.8,2,5.2,3
2013/3/30 3:17,3.5,2,3.6,2,5.4,2
2013/3/30 3:18,3.5,2,3.5,2,5.2,1
2013/3/30 3:19,3.3,1,3.5,2,4.3,1
2013/3/30 3:20,3.2,1,3.3,2,5,1
2013/3/30 3:21,3.4,1,3.4,2,8.1,1
2013/3/30 3:22,3.5,1,3.5,2,6.4,3
2013/3/30 3:23,3.7,2,3.7,2,6.1,3
2013/3/30 3:24,3.6,2,3.7,2,6.1,3
2013/3/30 3:25,3.3,2,3.6,2,3.3,1
2013/3/30 3:26,3.2,2,3.3,2,3.2,16
2013/3/30 3:27,3.1,1,3.2,2,3.8,16
2013/3/30 3:28,3.1,1,3.1,2,5.2,16
2013/3/30 3:29,3.2,1,3.2,2,5.7,1
2013/3/30 3:30,3.3,1,3.3,2,6.2,2
2013/3/30 3:31,3.1,1,3.4,2,6,2
2013/3/30 3:32,2.9,1,3.1,2,6.8,16
2013/3/30 3:33,2.8,1,2.9,2,5.1,1
2013/3/30 3:34,3,1,3,2,7,3
2013/3/30 3:35,3.1,1,3.1,1,6.8,2
2013/3/30 3:36,3.2,1,3.2,1,4.7,2
2013/3/30 3:37,3.3,1,3.3,1,5.4,2
2013/3/30 3:38,3.3,1,3.3,1,7,1
2013/3/30 3:39,3.3,1,3.3,1,6.1,16
2013/3/30 3:40,3.2,1,3.3,1,6.7,2
2013/3/30 3:41,3.2,1,3.2,1,8.1,16
2013/3/30 3:42,3.3,2,3.4,2,7.2,1
2013/3/30 3:43,3.2,2,3.3,2,3.9,1
2013/3/30 3:44,2.9,2,3.2,2,3.8,6
2013/3/30 3:45,2.7,2,2.9,2,2.1,4
2013/3/30 3:46,2.6,3,2.7,2,2.2,7
2013/3/30 3:47,2.5,3,2.6,2,3,6
2013/3/30 3:48,2.4,4,2.5,2,2.5,6
2013/3/30 3:49,2.2,4,2.4,2,2.4,7
2013/3/30 3:50,1.9,5,2.2,2,1,3
2013/3/30 3:51,1.8,5,1.9,2,1.3,13
2013/3/30 3:52,1.4,5,1.7,2,1.8,6
2013/3/30 3:53,1.4,5,1.4,2,2.4,3
2013/3/30 3:54,1.3,5,1.4,2,2.1,3
2013/3/30 3:55,1.4,4,1.4,2,2.5,1
2013/3/30 3:56,1.4,4,1.4,3,3.7,1
2013/3/30 3:57,1.5,3,1.5,3,5.1,2
2013/3/30 3:58,1.5,3,1.5,4,3.6,16
2013/3/30 3:59,1.6,2,1.6,4,3.8,3
2013/3/30 4:00,1.6,2,1.6,5,2.7,3
2013/3/30 4:01,1.8,2,1.8,3,3.7,2
2013/3/30 4:02,1.9,2,1.9,2,3.7,16
2013/3/30 4:03,1.9,2,1.9,2,3,3
2013/3/30 4:04,1.8,2,1.9,2,1.5,3
2013/3/30 4:05,1.8,2,1.8,2,2.5,3
2013/3/30 4:06,1.8,2,1.8,2,2.7,3
2013/3/30 4:07,1.6,2,1.7,2,2.5,15
2013/3/30 4:08,1.5,2,1.6,2,2,15
2013/3/30 4:09,1.3,2,1.5,2,1.5,2
2013/3/30 4:10,1.2,2,1.3,2,0.6,16
2013/3/30 4:11,1.1,2,1.2,2,1,2
2013/3/30 4:12,1,2,1.1,2,1.8,3
2013/3/30 4:13,1,2,1,2,1.9,3
2013/3/30 4:14,1.1,2,1.1,2,2.6,3
2013/3/30 4:15,1.1,2,1.1,2,2.7,4
2013/3/30 4:16,1.2,3,1.2,2,2.1,4
2013/3/30 4:17,1.2,3,1.3,2,2.5,5
2013/3/30 4:18,1.2,3,1.2,2,2.6,3
2013/3/30 4:19,1.3,3,1.3,2,2.9,4
2013/3/30 4:20,1.4,3,1.4,3,2.1,14
2013/3/30 4:21,1.5,3,1.5,3,2.6,16
2013/3/30 4:22,1.6,3,1.6,3,3.3,2
2013/3/30 4:23,1.8,2,1.8,2,3.7,16
2013/3/30 4:24,1.8,2,1.8,2,3.8,1
2013/3/30 4:25,1.8,1,1.8,2,2.7,15
2013/3/30 4:26,1.8,16,1.8,2,2.5,14
2013/3/30 4:27,1.8,16,1.8,2,2.2,13
2013/3/30 4:28,1.8,15,1.8,2,1.6,15
2013/3/30 4:29,1.7,15,1.8,2,1.1,13
2013/3/30 4:30,1.6,15,1.7,2,1.1,3
2013/3/30 4:31,1.5,15,1.6,2,1,14
2013/3/30 4:32,1.3,15,1.5,2,1.6,14
2013/3/30 4:33,1.2,15,1.3,2,1.8,3
2013/3/30 4:34,1.1,15,1.1,2,3.9,2
2013/3/30 4:35,1.1,15,1.1,1,2.9,16
2013/3/30 4:36,1,16,1.1,16,1.6,2
2013/3/30 4:37,0.9,16,1,16,0.6,15
2013/3/30 4:38,0.9,1,0.9,15,0.6,1
2013/3/30 4:39,0.9,1,0.9,15,1.5,16
2013/3/30 4:40,0.9,1,0.9,15,1,16
2013/3/30 4:41,0.9,1,0.9,15,0.6,16
2013/3/30 4:42,0.9,1,0.9,15,1,16
2013/3/30 4:43,0.9,1,0.9,15,2.1,2
2013/3/30 4:44,0.8,1,0.9,15,2.5,2
2013/3/30 4:45,0.8,16,0.8,16,2.9,16
2013/3/30 4:46,0.9,16,0.9,16,2.4,16
2013/3/30 4:47,0.9,16,0.9,16,1.4,15
2013/3/30 4:48,1,16,1,16,1.3,15
2013/3/30 4:49,0.9,16,1,16,1.1,16
2013/3/30 4:50,0.9,16,0.9,16,1.3,16
2013/3/30 4:51,1,16,1,16,1.8,3
2013/3/30 4:52,1.1,1,1.1,16,2,3
2013/3/30 4:53,1.1,1,1.1,16,1.6,5
2013/3/30 4:54,1,2,1.1,16,1.4,3
2013/3/30 4:55,0.9,2,1,16,1.4,3
2013/3/30 4:56,0.8,2,0.9,16,0.8,3
2013/3/30 4:57,0.8,2,0.8,16,0.4,1
2013/3/30 4:58,0.7,2,0.8,16,0.1,1
2013/3/30 4:59,0.7,2,0.7,16,0.9,1
2013/3/30 5:00,0.6,2,0.7,16,0.9,16
2013/3/30 5:01,0.6,2,0.7,16,1.3,15
2013/3/30 5:02,0.6,1,0.6,1,1.8,16
2013/3/30 5:03,0.6,1,0.6,1,1.8,15
2013/3/30 5:04,0.6,1,0.6,2,1.4,15
2013/3/30 5:05,0.6,1,0.6,2,2.6,3
2013/3/30 5:06,0.8,1,0.8,2,3.1,5
2013/3/30 5:07,0.9,1,0.9,1,2.6,3
2013/3/30 5:08,1,2,1,1,1.5,2
2013/3/30 5:09,1.1,2,1.1,2,1.8,6
2013/3/30 5:10,1.2,3,1.2,3,1.5,5
2013/3/30 5:11,1.1,4,1.2,3,1,6
2013/3/30 5:12,1.1,4,1.1,3,0.9,3
2013/3/30 5:13,1,4,1.1,3,0.5,2
2013/3/30 5:14,1,4,1,3,1,6
2013/3/30 5:15,1,4,1,3,1,5
2013/3/30 5:16,0.9,4,0.9,3,1.5,5
2013/3/30 5:17,0.8,5,0.8,3,1.1,5
2013/3/30 5:18,0.7,5,0.7,3,0.8,9
2013/3/30 5:19,0.6,5,0.7,3,0.8,8
2013/3/30 5:20,0.5,5,0.6,3,0.9,16
2013/3/30 5:21,0.5,5,0.5,4,0.9,4
2013/3/30 5:22,0.6,5,0.6,4,1.9,10
2013/3/30 5:23,0.7,6,0.7,4,1.6,9
2013/3/30 5:24,0.6,6,0.7,4,1.1,14
2013/3/30 5:25,0.6,5,0.6,4,1.4,16
2013/3/30 5:26,0.6,4,0.6,4,1.3,16
2013/3/30 5:27,0.6,2,0.6,5,0.9,1
2013/3/30 5:28,0.7,1,0.7,5,1.8,16
2013/3/30 5:29,0.7,1,0.7,6,1.4,1
2013/3/30 5:30,0.7,1,0.7,6,1.1,2
2013/3/30 5:31,0.7,1,0.7,6,0.8,3
2013/3/30 5:32,0.7,1,0.7,6,1.3,2
2013/3/30 5:33,0.7,1,0.7,6,1.4,16
2013/3/30 5:34,0.7,1,0.7,2,1,16
2013/3/30 5:35,0.7,1,0.7,2,1.6,5
2013/3/30 5:36,0.7,2,0.7,2,1.4,5
2013/3/30 5:37,0.7,2,0.7,2,0.8,4
2013/3/30 5:38,0.7,2,0.7,1,1.1,13
2013/3/30 5:39,0.7,1,0.7,1,1.4,13
2013/3/30 5:40,0.7,16,0.7,1,1.4,12
2013/3/30 5:41,0.8,15,0.8,15,1,11
2013/3/30 5:42,0.7,14,0.8,15,0.8,13
2013/3/30 5:43,0.7,13,0.7,15,0.5,11
2013/3/30 5:44,0.6,13,0.7,15,0.3,12
2013/3/30 5:45,0.6,13,0.6,15,1,16
2013/3/30 5:46,0.5,13,0.6,15,0.8,16
2013/3/30 5:47,0.5,13,0.5,15,0.5,5
2013/3/30 5:48,0.5,13,0.5,15,0.8,8
2013/3/30 5:49,0.4,12,0.5,15,0.6,6
2013/3/30 5:50,0.4,12,0.4,15,0.8,4
2013/3/30 5:51,0.4,5,0.4,14,0.8,4
2013/3/30 5:52,0.4,4,0.4,14,0.6,16
2013/3/30 5:53,0.3,3,0.4,13,0.5,16
2013/3/30 5:54,0.3,3,0.3,13,0.1,15
2013/3/30 5:55,0.3,3,0.3,13,0.8,14
2013/3/30 5:56,0.3,3,0.3,13,0.6,13
2013/3/30 5:57,0.3,15,0.3,13,0.4,12
2013/3/30 5:58,0.3,14,0.3,13,0.8,14
2013/3/30 5:59,0.3,13,0.3,12,1,9
2013/3/30 6:00,0.4,13,0.4,13,1.3,9
2013/3/30 6:01,0.5,12,0.5,12,2.1,9
2013/3/30 6:02,0.5,12,0.5,12,1.5,9
2013/3/30 6:03,0.6,11,0.6,11,1.1,9
2013/3/30 6:04,0.6,11,0.6,11,1.1,2
2013/3/30 6:05,0.7,11,0.7,11,1.8,1
2013/3/30 6:06,0.8,11,0.8,11,2.7,16
2013/3/30 6:07,1,11,1,11,2.1,16
2013/3/30 6:08,1.1,12,1.1,12,1.9,15
2013/3/30 6:09,1.1,13,1.1,12,1.5,14
2013/3/30 6:10,1.1,13,1.1,12,1.3,13
2013/3/30 6:11,1,13,1.1,12,0.9,11
2013/3/30 6:12,1,13,1,12,0.8,9
2013/3/30 6:13,1,13,1,12,1,10
2013/3/30 6:14,1.1,13,1.1,12,1.6,9
2013/3/30 6:15,1.1,12,1.1,12,1.8,10
2013/3/30 6:16,1,12,1.1,12,1,11
2013/3/30 6:17,0.9,11,0.9,12,0.9,1
2013/3/30 6:18,0.8,11,0.9,12,1,13
2013/3/30 6:19,0.8,11,0.8,13,1.6,13
2013/3/30 6:20,0.8,11,0.8,13,1.8,12
2013/3/30 6:21,0.9,11,0.9,13,1.9,12
2013/3/30 6:22,1,12,1,13,1.6,12
2013/3/30 6:23,0.9,12,1,13,1,12
2013/3/30 6:24,0.9,12,0.9,13,1.5,2
2013/3/30 6:25,0.8,13,0.9,12,1,16
2013/3/30 6:26,0.9,13,0.9,11,1.5,13
2013/3/30 6:27,0.9,13,0.9,11,1,14
2013/3/30 6:28,0.9,13,0.9,11,0.9,12
2013/3/30 6:29,0.8,13,0.9,11,0.8,16
2013/3/30 6:30,0.8,13,0.8,11,1.5,12
2013/3/30 6:31,0.7,13,0.8,11,1.3,12
2013/3/30 6:32,0.7,14,0.7,12,1,3
2013/3/30 6:33,0.7,15,0.7,12,1.1,3
2013/3/30 6:34,0.7,15,0.8,12,0.9,4
2013/3/30 6:35,0.7,15,0.7,13,1.4,8
2013/3/30 6:36,0.6,15,0.7,13,0.3,9
2013/3/30 6:37,0.6,15,0.6,13,0.6,9
2013/3/30 6:38,0.6,7,0.6,13,0.8,9
2013/3/30 6:39,0.5,7,0.6,13,0.1,6
2013/3/30 6:40,0.4,7,0.5,13,0.5,10
2013/3/30 6:41,0.4,7,0.4,15,0.6,10
2013/3/30 6:42,0.4,9,0.4,15,1.3,11
2013/3/30 6:43,0.4,9,0.4,15,1.1,11
2013/3/30 6:44,0.4,10,0.4,15,0.8,11
2013/3/30 6:45,0.4,11,0.4,15,0.4,13
2013/3/30 6:46,0.4,11,0.4,15,0.1,16
2013/3/30 6:47,0.4,11,0.4,14,0.3,11
2013/3/30 6:48,0.4,12,0.4,7,1.8,15
2013/3/30 6:49,0.5,12,0.5,7,3,16
2013/3/30 6:50,0.6,12,0.6,12,1.8,3
2013/3/30 6:51,0.7,13,0.7,13,2.6,5
2013/3/30 6:52,0.7,13,0.7,13,1.8,12
2013/3/30 6:53,0.7,13,0.7,13,1.4,5
2013/3/30 6:54,0.8,15,0.8,14,3.1,3
2013/3/30 6:55,1,2,1,1,3.8,3
2013/3/30 6:56,1.2,3,1.2,3,3.8,2
2013/3/30 6:57,1.3,3,1.3,3,1.8,1
2013/3/30 6:58,1.3,4,1.3,3,2.5,4
2013/3/30 6:59,1.3,4,1.3,3,1.3,10
2013/3/30 7:00,1.2,3,1.3,3,0.9,14
2013/3/30 7:01,1.2,3,1.2,3,2.4,4
2013/3/30 7:02,1.2,4,1.2,3,2.1,3
2013/3/30 7:03,1.3,4,1.3,3,2.7,7
2013/3/30 7:04,1.4,4,1.4,5,4.5,4
2013/3/30 7:05,1.5,5,1.5,5,4.5,3
2013/3/30 7:06,1.5,6,1.5,5,3.6,6
2013/3/30 7:07,1.6,6,1.6,6,2.7,7
2013/3/30 7:08,1.7,6,1.7,6,2.5,7
2013/3/30 7:09,1.9,6,1.9,6,3.1,8
2013/3/30 7:10,2,7,2,6,3.1,8
2013/3/30 7:11,2,7,2,6,3,8
2013/3/30 7:12,2.1,7,2.1,7,3,8
2013/3/30 7:13,1.9,7,2,7,1.1,8
2013/3/30 7:14,1.7,7,1.9,7,1.9,16
2013/3/30 7:15,1.6,8,1.6,7,3,9
2013/3/30 7:16,1.5,8,1.6,7,3,6
2013/3/30 7:17,1.5,8,1.5,7,3.5,6
2013/3/30 7:18,1.5,8,1.5,7,2.1,6
2013/3/30 7:19,1.3,7,1.4,7,1.8,5
2013/3/30 7:20,1.3,7,1.3,7,2.6,1
2013/3/30 7:21,1.3,7,1.3,7,3.7,14
2013/3/30 7:22,1.5,7,1.5,7,6.3,15
2013/3/30 7:23,1.5,6,1.5,7,3,16
2013/3/30 7:24,1.5,7,1.5,7,1.4,10
2013/3/30 7:25,1.4,6,1.5,8,0.3,8
2013/3/30 7:26,1.2,6,1.4,8,0.3,5
2013/3/30 7:27,1,6,1.2,8,1,9
2013/3/30 7:28,1.1,10,1.1,7,1.9,11
2013/3/30 7:29,1.1,11,1.1,7,2,10
2013/3/30 7:30,1.1,11,1.1,7,1.8,12
2013/3/30 7:31,1.1,11,1.1,7,2,9
2013/3/30 7:32,0.9,11,1,7,2,12
2013/3/30 7:33,0.9,11,0.9,6,2.2,12
2013/3/30 7:34,1,11,1,7,2,12
2013/3/30 7:35,1.1,11,1.1,6,2.1,11
2013/3/30 7:36,1.3,11,1.3,11,2.7,10
2013/3/30 7:37,1.3,11,1.3,11,2.4,9
2013/3/30 7:38,1.2,11,1.3,11,1.4,10
2013/3/30 7:39,1.2,11,1.2,11,2,8
2013/3/30 7:40,1.2,11,1.2,11,2.1,9
2013/3/30 7:41,1.2,10,1.2,11,3.3,9
2013/3/30 7:42,1.3,10,1.3,11,2.7,9
2013/3/30 7:43,1.2,10,1.3,11,1.9,8
2013/3/30 7:44,1.1,10,1.2,11,1.5,8
2013/3/30 7:45,1.1,10,1.1,11,2.1,10
2013/3/30 7:46,1,10,1.1,11,1.3,7
2013/3/30 7:47,1.1,9,1.1,11,2,9
2013/3/30 7:48,1.1,9,1.1,10,1.8,9
2013/3/30 7:49,1,9,1.1,10,2.1,9
2013/3/30 7:50,1,9,1.1,10,2.2,9
2013/3/30 7:51,1,10,1,10,1.4,10
2013/3/30 7:52,0.9,10,0.9,10,1.5,10
2013/3/30 7:53,0.8,10,0.9,10,1,10
2013/3/30 7:54,0.9,10,0.9,10,1.8,8
2013/3/30 7:55,0.9,10,1,10,3,9
2013/3/30 7:56,0.9,10,0.9,9,1.9,10
2013/3/30 7:57,1,10,1,9,1.8,10
2013/3/30 7:58,1,10,1.1,9,2,11
2013/3/30 7:59,1.1,10,1.1,9,2.4,11
2013/3/30 8:00,1.2,10,1.2,10,2.4,11
2013/3/30 8:01,1.2,11,1.2,10,2,11
2013/3/30 8:02,1.2,11,1.2,10,1.6,10
2013/3/30 8:03,1.2,10,1.2,10,2.2,6
2013/3/30 8:04,1.3,10,1.3,10,2.5,9
2013/3/30 8:05,1.3,10,1.3,10,2.7,10
2013/3/30 8:06,1.3,10,1.3,10,2.6,9
2013/3/30 8:07,1.4,10,1.4,10,4.3,9
2013/3/30 8:08,1.4,10,1.4,10,2.7,9
2013/3/30 8:09,1.3,9,1.4,10,2.4,10
2013/3/30 8:10,1.3,9,1.3,10,2.9,10
2013/3/30 8:11,1.4,9,1.4,10,3.2,10
2013/3/30 8:12,1.4,9,1.4,10,3.1,10
2013/3/30 8:13,1.4,9,1.4,10,2.9,10
2013/3/30 8:14,1.5,9,1.5,9,4.1,10
2013/3/30 8:15,1.6,9,1.6,9,3.7,9
2013/3/30 8:16,1.5,10,1.6,9,2.5,9
2013/3/30 8:17,1.6,10,1.6,9,3.1,10
2013/3/30 8:18,1.6,10,1.6,9,2.5,12
2013/3/30 8:19,1.7,10,1.7,10,2.6,11
2013/3/30 8:20,1.7,10,1.7,10,3.3,8
2013/3/30 8:21,1.7,11,1.7,10,2.6,8
2013/3/30 8:22,1.8,10,1.8,11,2.9,9
2013/3/30 8:23,1.9,10,1.9,10,3,8
2013/3/30 8:24,1.8,10,1.9,10,3.2,8
2013/3/30 8:25,1.8,10,1.8,10,3.5,9
2013/3/30 8:26,1.9,10,1.9,10,3.7,9
2013/3/30 8:27,1.9,9,1.9,10,3.1,8
2013/3/30 8:28,2,9,2,9,4.3,9
2013/3/30 8:29,2,9,2,9,3.5,8
2013/3/30 8:30,2.1,9,2.1,9,4.1,9
2013/3/30 8:31,2.1,9,2.1,9,3.5,9
2013/3/30 8:32,2.1,9,2.2,9,4.3,9
2013/3/30 8:33,2.1,9,2.1,9,2.6,12
2013/3/30 8:34,2.1,9,2.1,9,3.2,8
2013/3/30 8:35,2.1,9,2.1,9,3.2,10
2013/3/30 8:36,2.1,9,2.1,9,3.2,10
2013/3/30 8:37,2.2,9,2.2,9,4.1,9
2013/3/30 8:38,2.1,9,2.2,9,3.8,9
2013/3/30 8:39,2.1,9,2.1,9,4.4,9
2013/3/30 8:40,2.2,9,2.2,9,4.2,9
2013/3/30 8:41,2.2,9,2.2,9,3,10
2013/3/30 8:42,2.2,9,2.2,9,4.5,9
2013/3/30 8:43,2.4,9,2.4,9,4.2,9
2013/3/30 8:44,2.3,9,2.4,9,3.5,8
2013/3/30 8:45,2.4,9,2.4,9,3.5,9
2013/3/30 8:46,2.5,9,2.5,9,4.7,9
2013/3/30 8:47,2.6,9,2.6,9,4.9,9
2013/3/30 8:48,2.6,9,2.6,9,4.5,8
2013/3/30 8:49,2.5,9,2.6,9,4.3,8
2013/3/30 8:50,2.5,9,2.5,9,4.7,9
2013/3/30 8:51,2.5,9,2.5,9,3.6,9
2013/3/30 8:52,2.4,9,2.5,9,4.1,9
2013/3/30 8:53,2.3,9,2.4,9,3.8,8
2013/3/30 8:54,2.3,9,2.3,9,3.3,8
2013/3/30 8:55,2.2,9,2.3,9,2.6,9
2013/3/30 8:56,2,9,2.2,9,3.9,8
2013/3/30 8:57,1.9,9,2,9,3.7,9
2013/3/30 8:58,1.8,9,1.9,9,3.5,9
2013/3/30 8:59,1.8,9,1.8,9,4.4,9
2013/3/30 9:00,1.8,9,1.9,9,3.2,9
2013/3/30 9:01,1.7,9,1.8,9,3.2,11
2013/3/30 9:02,1.7,9,1.7,9,3.7,9
2013/3/30 9:03,1.6,9,1.7,9,2.7,8
2013/3/30 9:04,1.7,9,1.7,9,4.8,9
2013/3/30 9:05,1.8,9,1.9,9,4.5,9
2013/3/30 9:06,1.9,9,1.9,9,3.3,8
2013/3/30 9:07,2,9,2,9,4.8,10
2013/3/30 9:08,2,9,2,9,3.9,9
2013/3/30 9:09,2.1,9,2.1,9,4.8,9
2013/3/30 9:10,2.1,9,2.1,9,3.3,9
2013/3/30 9:11,2.2,9,2.2,9,3.5,9
2013/3/30 9:12,2.2,9,2.3,9,3,9
2013/3/30 9:13,2.3,9,2.3,9,3.9,10
2013/3/30 9:14,2.2,9,2.3,9,3.7,10
2013/3/30 9:15,2.1,9,2.2,9,4.1,8
2013/3/30 9:16,2,9,2.1,9,2.2,9
2013/3/30 9:17,1.9,9,2,9,2.7,9
2013/3/30 9:18,1.9,9,1.9,9,3.5,8
2013/3/30 9:19,1.7,9,1.9,9,3.6,8
2013/3/30 9:20,1.7,9,1.7,9,3.3,8
2013/3/30 9:21,1.6,9,1.6,9,2.7,7
2013/3/30 9:22,1.6,9,1.6,9,2.9,6
2013/3/30 9:23,1.6,8,1.6,9,3.6,8
2013/3/30 9:24,1.6,8,1.6,9,3.8,8
2013/3/30 9:25,1.6,8,1.6,9,3.7,9
2013/3/30 9:26,1.7,8,1.7,9,4.1,8
2013/3/30 9:27,1.9,8,1.9,9,3.6,7
2013/3/30 9:28,1.8,8,1.9,9,3.5,9
2013/3/30 9:29,1.9,8,2,8,3,9
2013/3/30 9:30,1.9,8,2,8,3.2,8
2013/3/30 9:31,1.9,8,1.9,8,2.6,10
2013/3/30 9:32,1.8,8,1.9,8,2.6,9
2013/3/30 9:33,1.7,8,1.8,8,3.5,8
2013/3/30 9:34,1.7,8,1.7,8,2.9,6
2013/3/30 9:35,1.7,8,1.7,8,2.5,7
2013/3/30 9:36,1.6,8,1.7,8,2.7,9
2013/3/30 9:37,1.5,8,1.6,8,3.2,8
2013/3/30 9:38,1.5,9,1.5,8,2.6,10
2013/3/30 9:39,1.5,9,1.5,8,3,10
2013/3/30 9:40,1.4,9,1.5,8,2.1,9
2013/3/30 9:41,1.4,9,1.4,8,1.1,1
2013/3/30 9:42,1.3,9,1.4,8,1.1,1
2013/3/30 9:43,1.3,9,1.3,8,3.3,9
2013/3/30 9:44,1.2,9,1.3,8,2.7,9
2013/3/30 9:45,1.2,9,1.2,8,2.6,8
2013/3/30 9:46,1.3,9,1.3,8,3.5,8
2013/3/30 9:47,1.2,9,1.3,8,2.1,9
2013/3/30 9:48,1.1,9,1.2,9,2.2,9
2013/3/30 9:49,1,9,1.1,9,2.6,9
2013/3/30 9:50,1.1,9,1.1,9,3.8,10
2013/3/30 9:51,1.2,9,1.2,9,3.1,9
2013/3/30 9:52,1.3,9,1.3,9,3.5,10
2013/3/30 9:53,1.4,9,1.4,9,3.6,9
2013/3/30 9:54,1.5,9,1.5,9,4.1,9
2013/3/30 9:55,1.5,9,1.5,9,2,8
2013/3/30 9:56,1.3,9,1.5,9,0.9,7
2013/3/30 9:57,1.4,9,1.4,9,2.9,8
2013/3/30 9:58,1.4,9,1.4,9,2.4,8
2013/3/30 9:59,1.4,9,1.4,9,2.7,8
2013/3/30 10:00,1.4,10,1.4,9,3.2,9
2013/3/30 10:01,1.4,10,1.4,9,2.6,13
2013/3/30 10:02,1.3,10,1.4,9,1.3,11
2013/3/30 10:03,1.3,10,1.3,9,1.4,7
2013/3/30 10:04,1.1,10,1.2,9,0.9,8
2013/3/30 10:05,1.1,9,1.1,9,2.5,4
2013/3/30 10:06,1.2,9,1.2,9,3.3,5
2013/3/30 10:07,1.4,8,1.4,9,4.2,5
2013/3/30 10:08,1.6,7,1.6,7,3.9,6
2013/3/30 10:09,1.8,6,1.8,7,4.2,5
2013/3/30 10:10,1.7,6,1.8,7,1.4,6
2013/3/30 10:11,1.7,5,1.7,7,2.7,4
2013/3/30 10:12,1.6,5,1.7,7,1.5,8
2013/3/30 10:13,1.7,5,1.7,7,3.1,7
2013/3/30 10:14,1.8,5,1.8,7,5.6,8
2013/3/30 10:15,2,6,2,6,4.4,8
2013/3/30 10:16,2,6,2,6,3.3,9
2013/3/30 10:17,1.8,6,2,6,2,9
2013/3/30 10:18,1.6,7,1.8,6,1,6
2013/3/30 10:19,1.4,7,1.5,6,1.6,6
2013/3/30 10:20,1.5,7,1.5,6,4.5,8
2013/3/30 10:21,1.6,8,1.6,6,3.8,8
2013/3/30 10:22,1.7,8,1.7,6,3.1,9
2013/3/30 10:23,1.7,8,1.7,6,2.2,8
2013/3/30 10:24,1.7,8,1.8,6,3.6,8
2013/3/30 10:25,1.7,8,1.7,6,5.5,9
2013/3/30 10:26,1.7,8,1.7,6,3.8,10
2013/3/30 10:27,1.9,8,1.9,8,5.2,10
2013/3/30 10:28,2,9,2,9,3.1,9
2013/3/30 10:29,2.2,9,2.2,9,5.2,10
2013/3/30 10:30,2,9,2.1,9,3.1,9
2013/3/30 10:31,1.9,9,2,9,4.7,9
2013/3/30 10:32,1.8,9,1.9,9,3,10
2013/3/30 10:33,1.9,9,1.9,9,4.3,10
2013/3/30 10:34,2,9,2,9,4.3,10
2013/3/30 10:35,2,10,2,9,4.4,11
2013/3/30 10:36,2.2,10,2.2,9,5.8,10
2013/3/30 10:37,2.2,10,2.2,9,5.5,9
2013/3/30 10:38,2.1,10,2.2,9,2.7,10
2013/3/30 10:39,2.1,10,2.1,10,3.9,11
2013/3/30 10:40,2.2,10,2.2,10,3.1,11
2013/3/30 10:41,2.2,11,2.2,10,4.3,15
2013/3/30 10:42,2.3,11,2.3,11,3.3,13
2013/3/30 10:43,2.4,11,2.4,11,3.8,10
2013/3/30 10:44,2.3,11,2.4,11,2.5,12
2013/3/30 10:45,2.1,11,2.3,11,3.2,12
2013/3/30 10:46,1.8,12,2.1,11,2.1,14
2013/3/30 10:47,1.6,12,1.8,11,2.2,8
2013/3/30 10:48,1.7,12,1.7,11,4.4,7
2013/3/30 10:49,1.8,11,1.8,11,3.8,8
2013/3/30 10:50,1.7,11,1.7,11,2,10
2013/3/30 10:51,1.6,10,1.7,11,1.3,12
2013/3/30 10:52,1.4,10,1.6,11,1.3,3
2013/3/30 10:53,1.2,9,1.4,11,0.9,10
2013/3/30 10:54,1.1,8,1.2,11,1.3,8
2013/3/30 10:55,1.1,8,1.1,11,3.1,9
2013/3/30 10:56,1.2,8,1.2,12,4.2,10
2013/3/30 10:57,1.3,8,1.3,12,4.1,8
2013/3/30 10:58,1.2,9,1.3,12,4.7,9
2013/3/30 10:59,1.2,9,1.2,11,3.8,8
2013/3/30 11:00,1.3,9,1.3,11,3.7,8
2013/3/30 11:01,1.4,9,1.4,10,4.7,8
2013/3/30 11:02,1.7,9,1.7,9,5.1,7
2013/3/30 11:03,2,9,2,9,5.2,8
2013/3/30 11:04,2.1,8,2.1,8,3.7,6
2013/3/30 11:05,2.2,8,2.2,8,4.8,8
2013/3/30 11:06,2.4,8,2.4,8,4.7,7
2013/3/30 11:07,2.3,8,2.4,8,3.7,8
2013/3/30 11:08,2.2,8,2.3,8,1.1,11
2013/3/30 11:09,2.1,8,2.2,8,3.5,9
2013/3/30 11:10,2.1,8,2.1,8,2.2,9
2013/3/30 11:11,1.9,9,2.1,8,0.8,11
2013/3/30 11:12,1.6,9,1.9,8,0.5,16
2013/3/30 11:13,1.3,9,1.5,8,0.6,15
2013/3/30 11:14,1.1,11,1.3,8,1.3,1
2013/3/30 11:15,1,13,1.1,8,1.9,15
2013/3/30 11:16,0.8,14,0.9,8,2.6,15
2013/3/30 11:17,0.7,14,0.8,8,1.8,16
2013/3/30 11:18,0.8,14,0.8,8,3,8
2013/3/30 11:19,1,14,1,8,3.9,7
2013/3/30 11:20,1.2,15,1.2,8,4.7,6
2013/3/30 11:21,1.4,3,1.4,9,3.9,6
2013/3/30 11:22,1.6,5,1.6,4,4.7,8
2013/3/30 11:23,1.9,6,1.9,6,3.7,7
2013/3/30 11:24,1.9,7,1.9,6,4.1,9
2013/3/30 11:25,2,7,2,7,3.7,10